Regional Weather Roundup
Issued by NWS

Home | Current Version | Previous Version | Text Only | Print | Product List | Glossary On
Versions: 1 2 3 4 5 6 7 8 9 10 11 12 13 14 15 16 17 18 19 20 21 22 23 24 25 26 27 28 29 30 31 32 33 34 35 36 37 38 39 40 41 42 43 44 45 46 47 48 49 50
000
ASUS44 KFWD 261003
RWRTX
NORTH TEXAS HOURLY WEATHER ROUNDUP
NATIONAL WEATHER SERVICE FORT WORTH TX
400 AM CST WED NOV 26 2014

NOTE: "FAIR" INDICATES FEW OR NO CLOUDS BELOW 12,000 FEET WITH NO
SIGNIFICANT WEATHER AND/OR OBSTRUCTIONS TO VISIBILITY.

TXZ118-119-261100-
DALLAS/FORT WORTH METROPLEX

CITY           SKY/WX    TMP DP  RH WIND       PRES   REMARKS
DFW AIRPORT    CLEAR     39  30  70 S9        30.04F WCI  33
DALLAS LOVE    PTCLDY    48  29  47 SW5       30.06F
FTW MEACHAM    CLEAR     47  28  47 SW7       30.04F
DAL-EXECUTIVE  CLEAR     49  26  41 S5        30.04F
FTW-ALLIANCE   PTCLDY    47  27  45 SW13      30.03F
FTW-SPINKS     CLEAR     46  28  50 SW10      30.07F
ARLINGTON      CLEAR     41  29  62 CALM      30.05F
GRAND PRAIRIE  CLEAR     42  32  68 S7        30.07F WCI  37
ADDISON        CLEAR     48  33  56 S6        30.07S
MESQUITE       CLEAR     36  29  76 S6        30.07F WCI  31
LANCASTER      CLEAR     42  27  54 CALM      30.07F
$$

TXZ091>094-102>105-117-120-121-131>134-261100-
NORTH CENTRAL TEXAS

CITY           SKY/WX    TMP DP  RH WIND       PRES   REMARKS
SHRMAN/DENISON CLEAR     48  31  52 S16       30.03R
GAINESVILLE    CLEAR     37  29  72 S5        30.04S WCI  34
BRIDGEPORT     CLEAR     45  29  55 SW12      30.04F WCI  39
DECATUR        CLEAR     45  26  47 SW10      30.01F WCI  39
DENTON         CLEAR     42  29  59 S6        30.02F WCI  38
MCKINNEY       CLEAR     35  28  75 S8        30.04F WCI  29
GREENVILLE     PTCLDY    37  32  81 S6        30.06S WCI  33
ROCKWALL       CLEAR     42  31  64 S6        30.05S WCI  38
TERRELL        CLEAR     41  30  65 CALM      30.08F
WAXAHACHIE     CLEAR     45  31  58 S9        30.07F WCI  40
CLEBURNE       CLEAR     39  30  70 S7        30.07F WCI  34
GRANBURY       CLEAR     45  29  54 CALM      30.07F
$$

TXZ083>090-098>101-113>116-127>130-139>142-154-155-261100-
WESTERN NORTH TEXAS

CITY           SKY/WX    TMP DP  RH WIND       PRES   REMARKS
WICHITA FALLS  CLEAR     41  27  57 SW13      29.98F WCI  34
WF-KICKAPOO    FAIR      42  27  56 SW7       30.00S WCI  37
ABILENE        CLEAR     43  22  43 SW9       30.07F WCI  38
ABILENE-DYESS  CLEAR     49  18  29 SW12      30.06F
MINERAL WELLS  CLEAR     45  26  47 SW5       30.04F
STEPHENVILLE   CLEAR     47  26  42 SW8       30.09S
COMANCHE       CLEAR     46  28  48 SW16G23   30.07F WCI  39
COLEMAN        CLEAR     45  26  47 W14       30.10F WCI  39
BRADY          CLEAR     39  25  56 SW9       30.12S WCI  33
$$

TXZ143>147-156>162-174-175-261100-
CENTRAL TEXAS

CITY           SKY/WX    TMP DP  RH WIND       PRES   REMARKS
WACO           CLEAR     39  33  79 SW10      30.12R WCI  32
WACO-MCGREGOR  CLEAR     39  28  65 SW6       30.12S WCI  35
CORSICANA      CLEAR     42  31  64 S9        30.10F WCI  37
MEXIA          CLEAR     39  32  75 S7        30.11S WCI  34
HEARNE         CLEAR     42  34  74 SE5       30.16S WCI  39
CAMERON        CLEAR     44  34  68 SW9       30.15R WCI  39
TEMPLE         CLEAR     37  28  70 S7        30.12R WCI  32
KILLEEN        CLEAR     46  26  45 SW13      30.12R WCI  40
KILLEEN-SKYLRK CLEAR     45  25  45 SW6       30.12R
FORT HOOD      CLEAR     48  26  42 S5        30.12R
GATESVILLE     CLEAR     45  30  57 SW9       30.13S WCI  40
HAMILTON       CLEAR     47  27  45 SW15      30.10F
LAMPASAS       CLEAR     41  30  63 SW6       30.12R WCI  38
$$

TXZ095>097-106>112-122>126-135>138-148>153-164>167-261100-
EAST TEXAS

CITY           SKY/WX    TMP DP  RH WIND       PRES   REMARKS
PARIS          CLOUDY    39  30  70 S8        30.05F WCI  34
SULPHUR SPRNGS MOCLDY    47  31  54 SW10      30.08F
MOUNT PLEASANT PTCLDY    38  32  79 CALM      30.10F
MINEOLA        PTCLDY    48  28  46 S7        30.09F
TYLER          CLEAR     43  31  62 S10       30.09F WCI  37
LONGVIEW       PTCLDY    43  33  68 S10       30.11F WCI  37
MARSHALL       PTCLDY    38  35  89 CALM      30.14F
ATHENS         CLEAR     36  32  87 CALM      30.10F
PALESTINE      CLEAR     42  32  66 SE5       30.13F WCI  40
JACKSONVILLE   CLEAR     45  31  57 S10       30.14S WCI  40
HENDERSON      CLEAR     36  34  92 CALM      30.13F
NACOGDOCHES    PTCLDY    43  30  61 S3        30.15F
LUFKIN         CLEAR     47  35  63 S6        30.16F
$$

SUPPLEMENTAL OBSERVATIONS (CENTRAL)

CITY           SKY/WX    TMP DP  RH WIND       PRES   REMARKS
$$

SUPPLEMENTAL OBSERVATIONS (WEST)

CITY           SKY/WX    TMP DP  RH WIND       PRES   REMARKS
$$

SUPPLEMENTAL OBSERVATIONS (EAST)

CITY           SKY/WX    TMP DP  RH WIND       PRES   REMARKS
$$

SUPPLEMENTAL OBSERVATIONS ARE A COLLECTION OF AUTOMATED INSTRUMENTS
THAT ARE MAINTAINED BY A VARIETY OF FEDERAL AND STATE AGENCIES.
CERTAIN ELEMENTS...SUCH AS HUMIDITY VALUES AND SUSTAINED WIND
SPEEDS...MAY BE APPROXIMATED.




USA.gov is the U.S. government's official web portal to all federal, state and local government web resources and services.